Location: Br�ttisellen
(47.4227°N, 8.6287°E)
Time: 18:43:36
(UTC+00:00)

Cosmos 1825 - Pass Details

Date: 09 April 2020
Orbit: 502 x 509 km, 82.5° (Epoch: 02 June)

Event Time Altitude Azimuth Distance (km) Brightness Sun altitude
Rises 21:36:01 0° 340° (NNW) 2,628 6.9 -29.4°
Reaches altitude 10° 21:38:21 10° 329° (NNW) 1,736 5.8 -29.6°
Enters shadow 21:40:21 23° 303° (WNW) 1,127 4.4 -29.8°
